Find Starlink 4078

NORAD ID: 52689 Int'l Des: 2022-053 Owner: SPXS Country: US Constellation: starlink operational
LEOCIRCULAR

Live Position

Loading 3D Globe...

About Starlink 4078

Description loading...

Upcoming Passes

Passes for default location (London). Set your location on the main map for personalized predictions.

Altitude History

Loading altitude history...

Two-Line Element Set

1 52689U 22053AK 26125.40144720 .00120844 00000-0 12540-2 0 9993
2 52689 53.2065 169.1343 0006093 12.0181 348.0979 15.63777221220859
Epoch: May 5, 2026 • Age: 17 hours

Current Status

Altitude 388.8 km
Velocity 7.68 km/s
Sub-Earth Point -41.84°S, 133.96°W
Launch Date May 18, 2022
Age 3.9 years
Type internet

Technical Details

Classification Payload
Mass 297.00 kg
Dry Mass 275.00 kg
Total Mass 297.00 kg
Length 0.20 m
Diameter 2.80 m
Span 9.00 m
Shape Box + pan
Manufacturer SPXS
Bus Type Starlink
Phase Status In Orbit
Owner/State SPXS/US

Most Searched